Theta_e
314 314 314 316 316 316 318 319 317 318 317 316 316 318 318 318 319 320 317 315 315 316 323 328 329 328 329 332 333 335 343 337 328 330 323 323 323 319 316 315 310 307 306 307 307
315 315 316 316 315 316 319 318 318 318 318 318 319 319 318 318 321 318 315 317 316 319 328 326 327 329 332 332 332 332 332 326 323 323 319 317 315 318 312 308 307 306 305 304 304
315 316 316 315 315 316 318 318 319 318 318 319 317 318 318 320 325 317 315 316 316 321 324 325 325 328 331 329 326 325 327 323 323 322 319 313 309 308 311 307 305 304 303 303 303
316 316 316 315 315 316 317 318 318 318 317 313 315 315 317 320 321 315 314 314 315 320 324 325 327 329 329 327 325 322 320 320 319 318 316 312 308 306 305 305 304 303 303 303 302
316 316 316 316 316 317 318 318 319 317 315 314 315 314 316 318 315 314 314 314 317 322 324 326 326 327 325 322 320 319 317 316 313 311 309 308 306 305 304 304 303 303 302 301 301
316 316 316 317 317 318 319 319 315 314 316 315 315 316 317 317 314 313 314 315 315 320 320 323 324 325 322 323 322 317 316 315 315 314 310 307 306 306 304 304 303 302 300 300 300
316 315 315 316 316 316 315 315 316 316 315 315 315 316 314 314 314 313 314 316 314 314 318 316 321 326 323 320 318 315 314 314 313 311 309 307 304 303 303 303 301 300 299 299 300
316 315 315 316 316 316 315 315 315 314 314 315 316 317 315 313 313 313 313 317 316 314 314 315 317 318 321 320 319 319 320 318 312 312 310 310 305 303 302 301 300 300 298 298 299
315 315 315 316 316 315 316 316 315 316 315 315 316 317 314 313 312 312 312 313 316 315 314 315 316 315 316 317 317 316 315 316 314 310 310 309 304 302 302 301 300 298 297 297 297
315 315 315 315 314 314 314 315 315 314 316 316 315 317 313 312 311 311 312 313 315 317 317 318 316 313 312 312 314 313 313 314 312 311 309 305 303 302 301 300 299 297 297 296 297
315 316 315 314 314 315 317 319 320 318 313 313 313 313 312 311 312 310 310 315 317 318 317 314 311 310 311 311 312 312 314 312 309 310 309 306 304 302 302 299 298 297 296 296 297
314 316 315 315 314 316 319 320 318 317 316 315 313 312 312 312 312 309 311 318 317 314 317 314 310 310 311 311 310 314 311 309 310 310 308 306 304 303 302 300 298 296 296 297 297
314 315 316 316 316 319 317 317 318 318 321 317 314 311 312 312 309 308 310 315 316 315 312 311 310 311 311 310 308 312 308 306 307 308 308 308 305 304 302 301 297 296 296 297 297
313 315 316 316 317 319 319 317 319 318 324 318 315 312 313 313 311 309 309 312 314 314 314 311 308 309 310 309 307 311 307 306 307 309 311 308 308 305 300 297 296 295 296 296 297
314 314 316 316 320 320 319 318 317 321 331 317 315 312 314 311 312 311 310 312 311 311 315 308 307 305 307 305 307 308 306 306 309 308 311 308 303 301 297 295 295 295 296 297 297
313 314 315 316 318 317 316 317 320 328 328 319 314 314 316 314 312 312 311 310 311 310 308 309 305 304 304 306 307 307 305 311 311 311 309 304 303 298 296 295 295 295 296 296 297
312 313 314 316 320 316 317 320 328 328 318 318 317 313 314 314 313 312 310 306 306 312 315 307 305 305 303 305 307 304 304 311 310 309 306 304 303 299 296 295 296 295 296 296 297
312 313 314 315 315 316 319 325 330 322 319 316 315 314 314 313 313 311 313 309 305 305 311 311 313 303 302 303 301 304 302 303 306 305 303 304 302 299 296 295 296 296 296 296 297
315 316 317 314 315 316 323 329 326 322 318 317 316 318 316 315 314 314 307 307 305 303 307 305 307 304 302 302 300 302 299 300 302 303 303 303 299 298 296 295 295 295 296 296 297
315 318 316 314 314 317 326 322 319 315 315 316 318 315 319 315 317 315 311 305 305 304 303 304 307 304 303 304 301 299 299 300 300 303 302 299 297 294 294 295 295 295 295 296 296
315 323 315 314 315 322 326 319 314 311 312 314 314 315 315 315 314 313 309 305 305 304 304 303 305 305 305 300 298 299 298 298 299 299 298 300 296 295 294 294 294 294 295 296 296
317 325 315 315 323 322 320 316 310 311 310 310 312 313 313 314 314 311 309 306 305 305 304 303 303 304 301 299 299 297 297 297 301 300 299 299 297 295 295 294 295 295 296 296 295
322 321 315 315 331 319 313 310 310 310 309 310 310 311 311 311 315 312 308 304 304 304 302 304 305 306 302 300 301 299 297 297 297 297 300 295 296 296 295 294 294 294 296 295 295
322 327 319 318 318 317 314 312 308 307 307 307 307 309 310 311 312 310 308 305 303 303 302 302 304 303 306 301 299 300 298 297 296 296 294 294 293 295 294 294 294 295 295 294 294
321 325 315 325 319 317 316 313 309 308 307 308 308 309 312 310 310 310 307 303 302 300 301 301 305 301 299 298 298 298 297 297 294 296 293 293 294 293 294 294 294 295 294 294 294
326 324 316 319 316 317 315 313 312 307 308 307 310 307 308 308 307 309 307 305 303 301 300 300 304 300 301 298 297 297 298 297 297 295 294 294 293 294 294 294 295 295 293 293 294
312 313 322 312 316 323 317 312 311 306 304 307 307 306 303 302 300 299 299 299 300 301 300 300 300 302 304 297 297 298 298 296 295 294 294 293 293 294 294 295 295 293 293 293 293
Wind_Speed
10 8 6 5 5 5 8 10 10 8 6 4 3 5 6 7 6 12 14 14 17 20 13 14 10 6 10 1 4 2 3 7 10 11 5 15 18 19 18 18 23 19 16 18 19
9 8 7 5 4 6 8 11 10 7 5 2 5 7 9 11 8 21 22 18 14 13 10 13 9 3 2 3 3 5 5 6 11 10 12 17 19 14 12 17 17 16 18 22 21
9 9 8 5 5 7 8 10 7 3 6 8 8 7 8 9 4 12 26 22 16 11 8 10 10 6 4 5 7 8 4 8 11 14 16 16 22 16 5 13 14 13 12 18 18
9 9 8 7 6 7 8 7 2 5 8 9 5 4 5 4 2 18 26 24 16 11 11 7 5 2 6 9 10 6 13 10 9 13 11 14 13 18 17 10 9 9 13 14 15
9 8 8 8 7 7 7 4 1 4 9 9 5 6 6 7 7 19 20 22 12 11 11 5 6 4 8 8 17 16 12 14 14 17 17 18 17 13 12 8 9 9 12 12 15
8 8 9 8 8 7 6 2 2 4 11 7 6 12 4 6 11 17 18 18 20 12 14 14 5 9 8 5 5 10 14 12 7 11 12 17 12 9 9 7 8 11 11 13 17
7 8 9 7 6 5 5 5 5 8 7 4 5 5 17 7 10 18 17 10 16 16 8 16 14 2 6 8 10 14 11 8 5 11 6 21 15 10 7 7 9 10 10 10 17
6 7 7 5 5 4 4 3 5 7 6 5 4 5 5 5 11 19 17 2 12 11 5 6 3 6 4 7 7 7 8 6 5 2 6 7 6 7 6 8 9 10 9 10 14
5 5 6 5 5 4 2 2 5 8 6 7 8 6 4 6 20 20 15 8 11 3 3 2 10 8 5 4 5 7 5 9 7 4 3 7 8 6 8 8 9 9 9 11 14
3 4 5 5 9 11 9 13 16 18 5 4 14 5 6 9 12 19 16 9 4 6 2 2 7 10 12 12 4 9 6 9 8 4 7 15 10 6 5 9 8 8 10 13 14
1 2 3 4 6 4 10 9 4 2 19 7 6 7 7 16 2 24 25 12 6 2 5 11 9 8 9 10 11 10 8 10 13 5 3 10 8 6 1 7 7 9 15 14 14
0 2 3 2 2 9 11 4 3 3 7 8 9 7 9 13 6 22 28 6 12 14 1 6 10 6 7 12 15 6 9 8 6 7 3 9 9 5 3 4 8 13 14 17 17
1 3 4 2 2 4 9 6 3 4 2 4 5 6 5 9 8 13 15 8 6 13 15 13 9 7 11 12 16 6 8 12 9 9 8 5 6 5 5 3 12 12 13 16 19
1 3 3 3 2 2 4 2 4 4 3 7 7 6 11 1 5 11 18 2 4 6 8 8 11 11 8 9 12 4 15 15 11 5 1 1 1 4 6 9 13 14 17 17 19
3 3 3 4 3 0 2 1 4 1 2 5 4 3 7 7 4 12 20 8 13 12 3 4 9 12 9 8 10 6 23 19 13 5 3 2 3 3 10 14 18 18 18 19 20
3 3 3 2 1 2 1 2 2 3 3 3 3 7 3 11 4 3 7 7 2 9 14 7 6 6 7 13 4 17 19 4 4 2 2 4 2 5 6 14 17 18 19 21 22
3 1 1 3 1 1 1 3 3 2 2 4 4 4 6 7 7 6 12 15 7 6 4 6 10 3 14 5 3 17 14 4 4 4 3 12 7 4 8 12 13 19 21 23 21
3 3 4 3 2 1 2 3 2 2 5 1 0 3 5 8 4 9 7 7 12 10 4 6 2 9 11 9 7 7 9 4 4 4 7 15 4 5 9 11 15 18 20 21 23
2 4 1 3 1 2 3 2 4 5 2 2 3 4 3 5 2 4 7 7 8 12 7 7 3 5 7 7 8 6 6 2 4 7 4 3 4 6 18 19 17 21 23 24 25
5 5 2 2 2 3 2 4 3 4 3 3 4 5 5 6 2 5 5 6 6 7 7 5 3 2 1 2 8 6 5 3 4 5 6 6 6 6 19 19 21 24 25 25 28
3 2 2 2 3 3 3 5 5 4 5 6 3 4 6 3 6 4 6 3 8 8 7 6 3 3 2 7 8 5 5 5 1 2 2 4 2 12 15 18 23 24 23 24 21
5 1 4 3 2 3 3 3 2 3 1 3 4 7 5 6 5 4 4 4 6 6 5 3 3 3 5 4 4 7 5 6 3 6 3 2 5 14 20 18 21 23 23 24 23
2 2 4 3 3 3 5 4 6 2 4 2 3 5 4 3 2 3 5 2 6 5 5 6 2 2 3 2 2 4 4 4 1 1 4 2 5 18 15 19 21 21 23 20 25
3 2 1 1 2 8 6 5 4 5 3 4 4 2 4 4 6 4 4 2 3 5 4 3 2 3 1 2 1 1 3 4 4 2 4 6 13 16 19 22 22 22 20 22 22
3 2 1 2 1 6 4 5 7 4 3 1 2 4 4 3 4 4 4 4 2 1 1 3 2 3 4 2 1 2 3 3 4 6 2 9 11 14 19 20 21 22 20 25 25
2 3 3 2 4 8 1 5 7 4 3 3 4 4 4 4 5 4 4 2 5 3 2 1 2 3 2 3 2 4 4 4 7 6 6 9 9 13 17 15 20 18 23 25 25
2 3 2 4 3 3 3 6 8 10 6 7 11 11 11 8 9 8 9 7 5 3 2 3 3 3 1 3 3 3 2 2 5 6 6 5 7 15 18 19 22 17 24 24 24
Wind_Direction
21 24 24 32 42 92 112 125 121 107 90 95 33 1 348 341 335 56 35 330 328 330 330 313 270 255 278 185 299 253 298 59 17 27 79 15 87 78 65 74 60 48 45 34 28
22 18 19 27 60 110 124 136 127 98 71 21 321 312 319 324 310 48 354 353 346 342 350 340 4 293 57 21 333 358 43 48 34 100 86 54 38 66 72 49 44 49 38 30 22
23 25 26 38 89 123 134 146 140 56 356 329 309 302 305 312 267 17 354 359 4 358 310 302 294 310 105 54 15 6 89 68 47 61 107 89 61 42 48 51 45 36 33 21 15
29 39 45 59 95 125 141 155 176 342 345 344 353 350 296 295 49 351 357 351 355 350 314 260 238 30 66 46 91 97 50 77 55 44 71 73 90 70 66 68 56 48 29 15 12
39 48 56 67 88 121 136 142 63 7 6 358 356 329 318 71 19 346 354 2 10 18 13 330 22 37 92 119 93 101 108 95 97 88 88 82 76 80 70 69 58 37 36 13 11
47 53 66 78 94 106 116 109 56 9 355 8 13 348 290 69 352 352 351 6 18 36 35 29 351 80 67 22 35 111 113 115 99 93 94 90 70 72 56 36 40 22 26 13 7
51 63 77 81 86 89 97 88 19 359 20 31 20 38 62 32 350 1 355 14 22 28 33 13 17 65 123 103 118 135 127 150 116 127 115 121 64 59 35 42 24 19 19 9 354
57 79 72 68 63 74 116 34 38 30 13 20 340 356 76 25 19 8 359 8 8 26 31 12 10 81 48 117 175 214 189 157 80 338 150 213 86 51 32 32 20 9 4 348 351
70 88 60 50 66 68 71 358 350 351 348 19 356 294 68 6 5 359 2 344 329 32 47 33 70 57 0 267 206 65 348 354 143 99 95 17 117 78 39 27 14 3 351 349 358
79 102 71 74 98 87 78 95 70 31 342 336 4 95 39 346 333 354 352 302 289 289 278 317 53 56 30 23 27 327 347 320 41 46 39 91 114 91 40 39 11 350 346 0 355
83 135 110 127 135 18 343 281 248 104 43 69 34 77 14 332 294 3 346 307 180 59 105 47 60 33 10 14 334 279 297 356 347 115 101 108 126 107 359 46 1 353 6 355 351
337 180 172 161 240 340 316 358 39 76 88 51 62 75 21 345 16 7 2 33 59 44 49 89 49 354 313 27 347 337 21 4 316 356 28 133 124 127 70 37 9 10 360 353 349
279 194 190 213 329 19 70 75 61 7 211 69 85 39 357 20 40 356 2 324 22 60 55 71 9 334 15 29 358 6 28 341 305 321 47 152 129 181 160 334 11 11 3 353 348
205 172 178 193 307 139 66 46 9 2 223 14 15 31 358 88 65 31 359 245 69 33 88 62 22 17 32 29 358 281 354 310 292 322 67 213 331 104 36 5 1 5 0 349 347
144 133 180 174 349 96 181 335 352 308 215 12 35 319 50 68 326 18 30 27 60 18 224 23 34 16 13 353 347 307 311 295 267 201 239 178 301 156 37 0 1 360 353 349 346
135 112 123 186 295 255 199 307 329 221 94 75 41 355 85 54 51 13 34 33 340 69 72 93 86 36 336 311 59 324 324 132 75 190 120 356 316 57 11 9 352 354 350 347 341
101 107 222 177 69 223 76 252 256 12 209 71 26 357 93 28 43 7 73 52 32 346 25 105 47 95 9 349 350 352 352 359 354 4 297 360 57 81 23 19 360 352 349 342 345
88 91 75 144 145 103 252 248 298 32 49 144 334 96 67 355 55 24 66 38 26 357 303 337 316 17 355 28 303 351 34 56 310 328 289 301 70 173 39 17 4 356 345 341 343
89 128 113 333 86 57 262 257 26 34 5 357 194 276 122 85 332 113 63 25 32 11 20 0 69 141 46 15 15 334 31 247 275 262 295 135 71 229 13 7 0 352 346 345 346
333 165 64 328 330 275 248 89 94 49 336 259 46 350 52 11 34 47 58 7 353 24 328 9 286 46 21 240 43 77 351 360 317 357 312 344 75 343 1 354 358 352 346 345 336
296 217 347 331 318 236 32 64 107 62 2 9 47 108 69 53 29 62 22 54 7 341 298 8 238 134 145 33 24 353 21 349 209 56 309 325 69 27 357 5 354 345 342 340 345
288 185 326 352 157 15 70 77 78 105 42 66 49 43 48 19 46 91 91 32 353 320 351 61 303 16 60 87 360 66 29 20 71 330 307 173 259 18 10 1 351 337 338 333 351
300 98 15 337 127 93 128 86 48 130 22 67 89 30 18 76 106 81 87 13 1 35 20 354 13 295 171 223 213 53 43 4 192 161 229 79 278 356 358 355 342 339 336 351 346
304 129 98 84 271 128 140 134 112 7 76 56 110 124 151 91 34 137 114 94 13 45 324 303 329 33 251 46 239 352 109 48 10 239 316 267 320 333 353 347 337 339 337 349 345
12 65 349 121 159 119 86 131 132 124 68 302 97 52 87 116 125 106 116 158 142 101 271 33 341 351 99 77 341 314 301 180 168 246 182 294 327 355 347 336 334 331 350 348 346
107 125 40 347 31 89 124 164 127 115 358 126 116 72 23 81 26 131 125 12 62 149 53 360 357 325 213 164 270 283 237 261 275 342 312 323 314 352 331 330 333 341 353 346 346
92 105 97 292 179 161 151 150 138 127 358 33 120 103 82 77 79 77 68 64 69 30 90 342 348 360 92 198 293 253 284 19 351 342 318 325 329 340 335 340 330 359 350 342 344